Weather History for PADU - May, 2013

Change the Weather History Date:

Sunday, May 12, 2013

  Actual Average Record
Temperature  
Mean Temperature 35 °F -  
Max Temperature 39 °F 45 °F 53 °F (1990)
Min Temperature 33 °F 35 °F 30 °F (2012)
Degree Days  
Heating Degree Days 30    
Moisture  
Dew Point 30 °F    
Average Humidity 83    
Maximum Humidity 89    
Minimum Humidity 76    
Precipitation  
Precipitation 0.00 in - - ()
Sea Level Pressure  
Sea Level Pressure 29.97 in    
Wind  
Wind Speed 13 mph (North)    
Max Wind Speed 18 mph    
Max Gust Speed 29 mph    
Visibility 9 miles    
Events Rain , Snow    
Averages and records for this station are not official NWS values.
T = Trace of Precipitation, MM = Missing Value Source: NWS Daily Summary

Daily Weather History Graph

Daily Weather History Graph

Search for Another Location

Airport or City:

Trip Planner

Search our weather history database for the weather conditions in past years. The results will help you decide how hot, cold, wet, or windy it might be!

Date:

Astronomy

May. 12, 2013 Rise Set
Actual Time 7:08 AM AKDT 10:58 PM AKDT
Civil Twilight 6:23 AM AKDT 11:43 PM AKDT
Nautical Twilight 5:20 AM AKDT 12:46 AM AKDT
Astronomical Twilight 3:34 AM AKDT 2:30 AM AKDT
Moon 9:08 AM AKDT (5/12) 12:52 AM AKDT (5/12)
Length of Visible Light 17h 19m
Length of Day
15h 50m
Waxing Crescent, 7% of the Moon is Illuminated
May 12
Waxing Crescent
May 17
First Quarter
May 24
Full
May 31
Last Quarter
Jun 8
New

Hourly Weather History & Observations

Time (AKDT) Temp. Windchill Dew Point Humidity Pressure Visibility Wind Dir Wind Speed Gust Speed Precip Events Conditions
12:52 AM 35.6 °F 25.5 °F 32.0 °F 87% 30.08 in 9.0 mi North 17.3 mph 28.8 mph N/A   Overcast
12:56 AM 36.0 °F 25.6 °F 32.0 °F 86% 30.09 in 10.0 mi North 18.4 mph 27.6 mph N/A   Overcast
1:56 AM 35.1 °F 25.2 °F 30.9 °F 85% 30.08 in 10.0 mi North 16.1 mph - N/A   Overcast
2:56 AM 35.1 °F 26.9 °F 32.0 °F 89% 30.06 in 10.0 mi NNW 11.5 mph - N/A   Overcast
3:56 AM 35.1 °F 24.5 °F 30.9 °F 85% 30.04 in 10.0 mi North 18.4 mph - N/A   Overcast
4:53 AM 33.8 °F 23.5 °F 30.2 °F 87% 30.01 in 7.0 mi North 16.1 mph - 0.00 in Snow Light Snow
4:56 AM 34.0 °F 24.6 °F 30.9 °F 89% 30.02 in 7.0 mi North 13.8 mph - 0.00 in Snow Light Snow
5:04 AM 33.8 °F 24.8 °F 30.2 °F 87% 30.01 in 4.0 mi North 12.7 mph - 0.00 in Snow Light Snow
5:11 AM 33.8 °F 24.8 °F 30.2 °F 87% 30.01 in 5.0 mi North 12.7 mph - 0.00 in Snow Light Snow
5:32 AM 33.8 °F 25.8 °F 28.4 °F 81% 30.01 in 4.0 mi North 10.4 mph 16.1 mph 0.00 in Snow Light Snow
5:56 AM 34.0 °F 25.5 °F 30.0 °F 85% 30.02 in 10.0 mi North 11.5 mph - 0.00 in Rain Light Rain
6:56 AM 33.1 °F 23.4 °F 30.0 °F 89% 30.01 in 8.0 mi North 13.8 mph 19.6 mph 0.00 in Snow Light Snow
7:56 AM 34.0 °F 25.5 °F 28.9 °F 82% 30.00 in 10.0 mi North 11.5 mph - 0.00 in Rain Light Rain
8:56 AM 34.0 °F 26.6 °F 28.9 °F 82% 30.00 in 10.0 mi NNW 9.2 mph - 0.00 in   Overcast
9:56 AM 35.1 °F 26.9 °F 30.0 °F 82% 29.99 in 10.0 mi NNW 11.5 mph - 0.00 in   Overcast
10:56 AM 35.1 °F 28.6 °F 30.0 °F 82% 29.98 in 10.0 mi North 8.1 mph 17.3 mph N/A   Overcast
11:56 AM 35.1 °F 27.4 °F 30.9 °F 85% 29.96 in 8.0 mi North 10.4 mph - 0.00 in Snow Light Snow
12:50 PM 35.6 °F 28.0 °F 30.2 °F 81% 29.94 in 10.0 mi NNW 10.4 mph - 0.00 in   Overcast
12:56 PM 35.1 °F 31.0 °F 30.0 °F 82% 29.96 in 10.0 mi Variable 4.6 mph - 0.00 in   Overcast
1:56 PM 36.0 °F 29.0 °F 30.9 °F 82% 29.95 in 10.0 mi NNW 9.2 mph - 0.00 in   Overcast
2:56 PM 36.0 °F 28.5 °F 30.9 °F 82% 29.94 in 10.0 mi North 10.4 mph - N/A   Mostly Cloudy
3:56 PM 37.0 °F 29.8 °F 30.9 °F 79% 29.93 in 10.0 mi North 10.4 mph - 0.00 in   Mostly Cloudy
4:56 PM 37.9 °F 30.5 °F 30.9 °F 76% 29.91 in 10.0 mi North 11.5 mph - 0.00 in   Mostly Cloudy
5:56 PM 37.0 °F 30.4 °F 30.9 °F 79% 29.89 in 10.0 mi North 9.2 mph - N/A   Mostly Cloudy
6:56 PM 37.9 °F 30.5 °F 30.9 °F 76% 29.88 in 10.0 mi North 11.5 mph - N/A   Mostly Cloudy
7:56 PM 37.0 °F 29.8 °F 30.9 °F 79% 29.87 in 10.0 mi North 10.4 mph - N/A   Mostly Cloudy
8:56 PM 36.0 °F 28.5 °F 30.9 °F 82% 29.86 in 10.0 mi North 10.4 mph - N/A   Overcast
9:56 PM 36.0 °F 29.6 °F 30.9 °F 82% 29.86 in 10.0 mi NNW 8.1 mph - N/A   Overcast
10:56 PM 36.0 °F 30.3 °F 30.0 °F 79% 29.87 in 10.0 mi North 6.9 mph - N/A   Overcast
11:56 PM 36.0 °F 29.6 °F 30.0 °F 79% 29.88 in 10.0 mi NNW 8.1 mph - N/A   Overcast